Hart Island, Nova Scotia

3:13 PM ADT on September 22, 2017 (GMT -0300)
Hart Island

Weather History for CWRN - October, 2011

Change the Weather History Date:

Thursday, October 6, 2011

  Actual Average Record
Temperature  
Mean Temperature 43 °F -  
Max Temperature 45 °F - - ()
Min Temperature 41 °F - - ()
Degree Days  
Heating Degree Days 22    
Moisture  
Dew Point 39 °F    
Average Humidity 84    
Maximum Humidity 92    
Minimum Humidity 72    
Precipitation  
Precipitation 0.00 in - - ()
Sea Level Pressure  
Sea Level Pressure 29.69 in    
Wind  
Wind Speed 33 mph ()    
Max Wind Speed 45 mph    
Max Gust Speed 54 mph    
T = Trace of Precipitation, MM = Missing Value Source: Averaged Metar Reports

Daily Weather History Graph

Daily Weather History Graph

Search for Another Location

Airport or City:

Trip Planner

Search our weather history database for the weather conditions in past years. The results will help you decide how hot, cold, wet, or windy it might be!

Date:

Astronomy

Oct. 06, 2011 Rise Set
Actual Time 7:07 AM ADT 6:35 PM ADT
Civil Twilight 6:38 AM ADT 7:04 PM ADT
Nautical Twilight 6:04 AM ADT 7:39 PM ADT
Astronomical Twilight 5:29 AM ADT 8:13 PM ADT
Moon 3:58 PM ADT (10/6) 1:37 AM ADT (10/6)
Length of Visible Light 12h 26m
Length of Day
11h 27m
Waxing Gibbous, 75% of the Moon is Illuminated
Oct 6
Waxing Gibbous
Oct 11
Full
Oct 20
Last Quarter
Oct 26
New
Nov 2
First Quarter

Hourly Weather History & Observations

Time (ADT) Temp. Windchill Dew Point Humidity Pressure Visibility Wind Dir Wind Speed Gust Speed Precip Events Conditions
12:00 AM 44.2 °F 32.7 °F 41.5 °F 90% 29.44 in - NW 41.4 mph 50.6 mph N/A   Unknown
1:00 AM 42.8 °F 30.3 °F 40.6 °F 92% 29.45 in - NW 44.9 mph 54.1 mph N/A   Unknown
2:00 AM 43.0 °F 30.7 °F 39.7 °F 88% 29.48 in - NW 43.7 mph 54.1 mph N/A   Unknown
3:00 AM 43 °F - 40 °F 86% 29.48 in - NW 40.3 mph - -  
3:00 AM 43.2 °F 31.3 °F 40.3 °F 90% 29.48 in - NW 40.3 mph 50.6 mph N/A   Unknown
5:00 AM 42.6 °F 30.6 °F 39.9 °F 90% 29.50 in - NW 40.3 mph 49.5 mph N/A   Unknown
6:00 AM 43.2 °F 31.6 °F 40.1 °F 89% 29.52 in - WNW 38.0 mph 48.3 mph N/A   Unknown
7:00 AM 42.6 °F 30.6 °F 39.6 °F 89% 29.55 in - WNW 40.3 mph 50.6 mph N/A   Unknown
8:00 AM 42.6 °F 30.6 °F 39.7 °F 90% 29.57 in - WNW 40.3 mph 50.6 mph N/A   Unknown
10:00 AM 43.7 °F 32.5 °F 40.5 °F 88% 29.63 in - WNW 36.8 mph 48.3 mph N/A   Unknown
11:00 AM 44.4 °F 33.5 °F 40.3 °F 85% 29.65 in - NW 36.8 mph 44.9 mph N/A   Unknown
1:00 PM 45.1 °F 35.0 °F 39.9 °F 82% 29.69 in - NW 33.4 mph 42.6 mph N/A   Unknown
2:00 PM 45.5 °F 35.5 °F 40.1 °F 81% 29.70 in - NW 33.4 mph 41.4 mph N/A   Unknown
3:00 PM 43 °F - 37 °F 72% 29.73 in - NNW 31.1 mph - -  
3:00 PM 42.6 °F 31.9 °F 36.9 °F 80% 29.73 in - NNW 31.1 mph 40.3 mph N/A   Unknown
5:00 PM 43.2 °F 32.6 °F 36.9 °F 78% 29.80 in - NNW 31.1 mph 38.0 mph N/A   Unknown
6:00 PM 41.9 °F 30.7 °F 36.0 °F 79% 29.83 in - NNW 32.2 mph 39.1 mph N/A   Unknown
7:00 PM 42.6 °F 32.4 °F 37.4 °F 82% 29.87 in - NNW 27.6 mph 33.4 mph N/A   Unknown
8:00 PM 41.7 °F 31.2 °F 36.1 °F 81% 29.91 in - NNW 27.6 mph - N/A   Unknown
9:00 PM 43 °F - 38 °F 78% 29.93 in - NNW 29.9 mph - -  
9:00 PM 43.3 °F 33.0 °F 38.5 °F 83% 29.93 in - NNW 29.9 mph 36.8 mph N/A   Unknown
10:00 PM 43.3 °F 33.8 °F 37.8 °F 81% 29.96 in - NNW 25.3 mph 33.4 mph N/A   Unknown
11:00 PM 42.6 °F 32.2 °F 35.6 °F 76% 29.97 in - NNW 28.8 mph 40.3 mph N/A   Unknown